Weather History for Jackson, TN

Change the Weather History Date:

Sunday, August 11, 2013

  Actual Average Record
Temperature  
Mean Temperature 78 °F 79 °F  
Max Temperature 84 °F 91 °F 101 °F (2007)
Min Temperature 72 °F 68 °F 56 °F (1967)
Degree Days  
Heating Degree Days 0 0  
Month to date heating degree days 0 0  
Since 1 June heating degree days 0 2  
Since 1 July heating degree days 0 0  
Cooling Degree Days 13 14  
Month to date cooling degree days 141 154  
Year to date cooling degree days 1050 1157  
Since 1 June cooling degree days 850 942  
Growing Degree Days 28 (Base 50)    
Moisture  
Dew Point 72 °F    
Average Humidity 85    
Maximum Humidity 100    
Minimum Humidity 70    
Precipitation  
Precipitation 0.36 in 0.10 in 1.53 in (1979)
Month to date precipitation 1.04 1.21  
Year to date precipitation 44.40 34.08  
Snow  
Snow 0.00 in 0.00 in - ()
Month to date snowfall 0.0 0.0  
Since 1 June snowfall 0.0 0.0  
Since 1 July snowfall 0.0 0.0  
Snow Depth 0.00 in    
Sea Level Pressure  
Sea Level Pressure 30.09 in    
Wind  
Wind Speed 1 mph (West)    
Max Wind Speed 15 mph    
Max Gust Speed 21 mph    
Visibility 8 miles    
Events Rain , Thunderstorm    
T = Trace of Precipitation, MM = Missing Value Source: NWS Daily Summary

Daily Weather History Graph

Daily Weather History Graph

Search for Another Location

Airport:

Trip Planner

Search our weather history database for the weather conditions in past years. The results will help you decide how hot, cold, wet, or windy it might be!

Date:

Astronomy

Aug. 11, 2013 Rise Set
Actual Time 6:11 AM CDT 7:49 PM CDT
Civil Twilight 5:44 AM CDT 8:16 PM CDT
Nautical Twilight 5:11 AM CDT 8:49 PM CDT
Astronomical Twilight 4:36 AM CDT 9:23 PM CDT
Moon 10:47 AM CDT (8/11) 10:17 PM CDT (8/11)
Length of Visible Light 14h 31m
Length of Day
13h 37m
Waxing Crescent, 22% of the Moon is Illuminated
Aug 11
Waxing Crescent
Aug 14
First Quarter
Aug 20
Full
Aug 28
Last Quarter
Sep 5
New

Hourly Weather History & Observations

Time (CDT) Temp. Heat Index Dew Point Humidity Pressure Visibility Wind Dir Wind Speed Gust Speed Precip Events Conditions
12:53 AM 73.0 °F - 71.1 °F 93% 30.06 in 10.0 mi Calm Calm - N/A   Clear
1:53 AM 72.0 °F - 71.1 °F 97% 30.06 in 10.0 mi Calm Calm - N/A   Clear
2:53 AM 72.0 °F - 71.1 °F 97% 30.07 in 9.0 mi Calm Calm - N/A   Partly Cloudy
3:53 AM 73.9 °F - 72.0 °F 93% 30.09 in 10.0 mi Calm Calm - N/A   Overcast
4:38 AM 73.4 °F - 71.6 °F 94% 30.10 in 9.0 mi Calm Calm - N/A   Mostly Cloudy
4:53 AM 73.9 °F - 72.0 °F 93% 30.09 in 10.0 mi Calm Calm - N/A   Overcast
5:53 AM 73.9 °F - 72.0 °F 93% 30.09 in 10.0 mi Calm Calm - N/A   Overcast
6:20 AM 73.4 °F - 71.6 °F 94% 30.10 in 10.0 mi Calm Calm - N/A   Scattered Clouds
6:53 AM 73.0 °F - 71.1 °F 93% 30.09 in 7.0 mi Calm Calm - N/A   Clear
7:53 AM 75.9 °F - 73.0 °F 91% 30.09 in 10.0 mi Calm Calm - N/A   Mostly Cloudy
8:53 AM 80.1 °F 85.1 °F 75.0 °F 85% 30.10 in 10.0 mi Calm Calm - N/A   Mostly Cloudy
9:53 AM 81.0 °F 86.7 °F 75.0 °F 82% 30.13 in 10.0 mi NW 3.5 mph - N/A   Overcast
10:17 AM 77.0 °F - 71.6 °F 83% 30.16 in 10.0 mi West 12.7 mph 20.7 mph 0.00 in Rain , Thunderstorm Light Thunderstorms and Rain
10:27 AM 75.2 °F - 71.6 °F 89% 30.16 in 1.5 mi NW 10.4 mph - 0.14 in Rain , Thunderstorm Thunderstorms and Rain
10:39 AM 73.4 °F - 71.6 °F 94% 30.15 in 3.0 mi West 6.9 mph - 0.24 in Rain , Thunderstorm Light Thunderstorms and Rain
10:53 AM 73.9 °F - 72.0 °F 93% 30.14 in 10.0 mi Calm Calm - 0.24 in Thunderstorm Thunderstorm
11:10 AM 75.2 °F - 71.6 °F 89% 30.15 in 10.0 mi Calm Calm - 0.00 in Rain Light Rain
11:53 AM 75.0 °F - 72.0 °F 90% 30.13 in 3.0 mi Calm Calm - 0.07 in Rain Rain
12:53 PM 75.9 °F - 73.0 °F 91% 30.12 in 7.0 mi Calm Calm - 0.05 in Rain Light Rain
1:53 PM 78.1 °F - 73.9 °F 87% 30.09 in 10.0 mi SSW 3.5 mph - 0.00 in   Partly Cloudy
2:53 PM 80.1 °F 84.5 °F 73.9 °F 81% 30.09 in 10.0 mi NW 4.6 mph - N/A   Partly Cloudy
3:53 PM 82.0 °F 87.4 °F 73.0 °F 74% 30.07 in 10.0 mi WSW 4.6 mph - N/A   Mostly Cloudy
4:53 PM 82.9 °F 89.4 °F 73.9 °F 74% 30.07 in 10.0 mi Calm Calm - N/A   Partly Cloudy
5:53 PM 84.0 °F 90.2 °F 73.0 °F 69% 30.04 in 10.0 mi Calm Calm - N/A   Clear
6:53 PM 82.9 °F 88.8 °F 73.0 °F 72% 30.05 in 10.0 mi Calm Calm - N/A   Clear
7:53 PM 79.0 °F - 73.9 °F 84% 30.06 in 10.0 mi South 3.5 mph - N/A   Clear
8:53 PM 77.0 °F - 73.9 °F 90% 30.08 in 10.0 mi Calm Calm - N/A   Clear
9:53 PM 75.9 °F - 73.9 °F 94% 30.07 in 10.0 mi Calm Calm - 0.00 in Rain Light Rain
10:53 PM 73.9 °F - 72.0 °F 93% 30.07 in 10.0 mi Calm Calm - 0.00 in   Clear
11:13 PM 73.4 °F - 71.6 °F 94% 30.09 in 2.0 mi Calm Calm - N/A   Clear
11:23 PM 73.4 °F - 71.6 °F 94% 30.09 in 10.0 mi Calm Calm - N/A   Clear
11:31 PM 73.4 °F - 71.6 °F 94% 30.10 in 1.8 mi Calm Calm - N/A   Clear
11:44 PM 73.4 °F - 71.6 °F 94% 30.09 in 2.0 mi Calm Calm - N/A   Clear
11:48 PM 73.4 °F - 71.6 °F 94% 30.09 in 1.2 mi Calm Calm - N/A   Partly Cloudy
11:53 PM 73.0 °F - 71.1 °F 93% 30.09 in 1.0 mi Calm Calm - N/A   Mist